User: anonymous   Login
Location: ??
(35.4032°N, 139.3073°E)
Time: 12:40:48
(UTC+00:00)
Language:

Cosmos 1733 - Orbit

View from above orbital plane
View from above orbital plane
View from above satellite
View from above satellite

Ground track
Ground track

The orbit data is extracted from the following two-line orbital elements,

1 16611U 86018A   24174.02009202  .00012262  00000-0  36001-3 0  9997
2 16611  82.4810   9.5035 0009730  55.9985 304.2181 15.34964555 98050
Epoch (UTC): 22 June 2024 00:28:55
Eccentricity: 0.0009730
inclination: 82.4810°
perigee height: 454 km
apogee height: 467 km
right ascension of ascending node: 9.5035°
argument of perigee: 55.9985°
revolutions per day: 15.34964555
mean anomaly at epoch: 304.2181°
orbit number at epoch: 9805

The dashed part of the orbit path shows where the satellite is in the earth's shadow,  

DLR